Regional Weather Roundup
Issued by NWS San Diego, CA

Home | Current Version | Previous Version | Text Only | Print | Product List | Glossary On
Versions: 1 2 3 4 5 6 7 8 9 10 11 12 13 14 15 16 17 18 19 20 21 22 23 24 25 26 27 28
000
ASUS46 KSGX 100711
RWRSGX

SAN DIEGO HOURLY WEATHER ROUNDUP
NATIONAL WEATHER SERVICE SAN DIEGO CA
1100 PM PST FRI DEC 09 2016

NOTE: "FAIR" INDICATES FEW OR NO CLOUDS BELOW 12,000 FEET WITH NO
SIGNIFICANT WEATHER AND/OR OBSTRUCTIONS TO VISIBILITY.

CAZ042-043-060-061-PZZ750-775-100800-

GREATER SAN DIEGO AREA

CITY           SKY/WX    TMP DP  RH WIND       PRES   REMARKS
SAN DIEGO AP   CLOUDY    60  53  77 N7        30.22R
NATIONAL CITY    N/A     60  55  83 N1        30.21R
CHULA VISTA      N/A     58  55  90 CALM      30.13R
IMPERIAL BEACH CLOUDY    63  55  77 NW6       30.21R
BROWN FIELD    CLOUDY    56  55  97 CALM      30.20R
MIRAMAR MCAS   CLOUDY    58  54  86 E3        30.20R
MONTGOMERY FLD CLOUDY    59  53  80 CALM      30.20S

$$

NORTH SAN DIEGO COUNTY

CITY           SKY/WX    TMP DP  RH WIND       PRES   REMARKS
CAMP PENDLETON CLOUDY    56  55  97 NE3       30.20S FOG
OCEANSIDE AP   CLOUDY    52  51  97 E3        30.19S FOG
OCEANSIDE HBR    N/A     55  54  95 CALM      30.22S
VISTA            N/A     56  50  81 CALM      30.18R
CARLSBAD       CLOUDY    59  57  93 CALM      30.19R
DEL MAR          N/A     59  57  91 CALM      30.22S
LA JOLLA SCRIP   N/A     60  57  91 CALM      30.20R
FALLBROOK        N/A     54  54 100 CALM      30.20R
ESCONDIDO        N/A     56  53  89 CALM      30.23R
SAN MARCOS       N/A     56  52  84 CALM      30.22S

$$

EAST SAN DIEGO COUNTY

CITY           SKY/WX    TMP DP  RH WIND       PRES   REMARKS
RAMONA           N/A     43  43 100 CALM      30.20S VSB 1/4
SANTEE LAKES     N/A     53  51  92 CALM      30.20R
LA MESA          N/A     54  52  93 CALM      30.15R
JAMUL            N/A     53  51  92 CALM      30.22R
DESCANSO N       N/A     43  40  87 NE5       30.18R
CAMPO            N/A     42  38  85 NE5       30.16F

$$

ORANGE COUNTY AND THE LOS ANGELES BASIN

CITY           SKY/WX    TMP DP  RH WIND       PRES   REMARKS
JOHN WAYNE AP  CLOUDY    60  57  89 NE3       30.20R
LAGUNA BEACH     N/A     57  55  92 CALM      30.16R
LAKE FOREST FR   N/A     55  50  86 CALM      30.10S
HUNTINGTON BCH   N/A     60  58  94 CALM      30.20F
LOS ALAMITOS   CLOUDY    57  57 100 E3        30.19S
FULLERTON      CLOUDY    59  56  89 CALM      30.19S
LONG BEACH     CLOUDY    59  55  87 E6        30.18F FOG
L.A. AP        PTCLDY    58  56  93 E7        30.18F FOG
L.A. DOWNTOWN  CLOUDY    58  57  97 E5        30.18F FOG

$$

THE INLAND EMPIRE

CITY           SKY/WX    TMP DP  RH WIND       PRES   REMARKS
CORONA         CLEAR     47  45  93 CALM      30.21
CHINO          CLEAR     49  47  93 NW5       30.21S HAZE
ONTARIO        PTCLDY    52  49  89 CALM      30.20R
SAN BERNARDINO FAIR      48  42  78 CALM      30.20S
RIVERSIDE AP   CLEAR     51  47  86 CALM      30.20R
MORENO VALLEY    N/A     51  49  91 CALM      28.29S
MARCH ARB      CLEAR     46  46 100 W3        30.19R
HORSETHIEF CYN   N/A     49  42  75 CALM      30.24R
PERRIS           N/A     51  48  87 CALM      30.21S
HEMET EAST       N/A     51  41  68 CALM      30.26R
FRENCH VALLEY  NOT AVBL
TEMECULA         N/A     50  49  95 CALM      30.27R

$$

SAN BERNARDINO AND RIVERSIDE COUNTY MOUNTAINS

CITY           SKY/WX    TMP DP  RH WIND       PRES   REMARKS
BIG BEAR AP    CLEAR     28  27  93 CALM      30.30R
PINE COVE        N/A     42  38  86 N2        30.18R

$$

SOUTHERN DESERT INCLUDING THE COACHELLA VALLEY

CITY           SKY/WX    TMP DP  RH WIND       PRES   REMARKS
PALM SPRINGS   CLEAR     57  43  59 NW7       30.17S
PALM DESERT      N/A     55  42  61 CALM      31.55F
THERMAL        CLEAR     45  36  70 CALM      30.14R
BLYTHE         CLEAR     50  20  30 NW8       30.17S
IMPERIAL AP    CLEAR     51  34  52 S5        30.13F
EL CENTRO NAS  CLEAR     49  26  41 S5        30.15F
YUMA AZ        CLEAR     55  23  28 CALM      30.14
MEXICALI       MOCLDY    52  32  46 NW6       30.16S

$$

UPPER DESERT

CITY           SKY/WX    TMP DP  RH WIND       PRES   REMARKS
VICTORVILLE AP   N/A     45  36  70 CALM      30.21S
HESPERIA         N/A     47  40  75 W1        30.33R
PALMDALE       CLEAR     51  40  65 SW8       30.21F
LANCASTER      CLEAR     52  44  74 W7        30.20F
EDWARDS AFB    CLEAR     47  27  45 NW6       30.18S
DAGGETT        CLEAR     40  12  32 W7        30.21R
29 PALMS N     CLEAR     48  29  47 W6        30.26F
NEEDLES        CLEAR     53  17  24 NW8       30.20S

$$

REGIONAL REPORTS

CITY           SKY/WX    TMP DP  RH WIND       PRES   REMARKS
SANTA BARBARA  CLEAR     59  57  93 S7        30.17R
SANDBERG       CLOUDY    51  47  86 N18       30.26S
LAS VEGAS NV   PTCLDY    45  13  27 SW5       30.20F
PHOENIX AZ     PTCLDY    57  39  51 CALM      30.13S
TIJUANA        CLOUDY    55  52  88 CALM      30.22
ENSENADA NW      N/A     58  32  37 CALM      30.16R

$$

OFFSHORE ISLANDS

CITY           SKY/WX    TMP DP  RH WIND       PRES   REMARKS
CATALINA ARPT  FOG       56  56 100 NW7       30.20F VSB 3/4
SAN NICOLAS IS FOG       58  32  37 NW23      30.19S VSB 1/2

$$

MARINE AND OFFSHORE BUOY REPORTS

STATION/POSITION SKY/WX   TEMP    WIND        PRES    SWELL
                          AIR SEA DIR/SP/G            HT/PER/DIR
                          (F)     (DEG/KT/KT) (MB)    (FT/S/D)
TANNER BANKS               60 61  310/ 17/ 21 1022.8F   3/320/15
S CLEMENTE BASIN           60 62  340/ 10/ 12 1022.8R   3/280/16
SAN NICOLAS IS.               58                N/A     2/300/14
SO. S. ROSA ISLA           59 59  290/ 14/ 17 1022.7R   3/300/ 9
W. S. BARBARA CH           57 57  300/ 10/ 12 1022.7S   5/280/ 9
M. S. BARBARA CH                  260/ 14/ 19 1022.5R
S. MONICA BASIN            59 61  120/  4/  4 1022.0R   3/260/ 5
S PEDRO CHANNEL               61                N/A     2/270/15
CMP PENDLETON NS              60                N/A     2/220/15
OCEANSIDE OFFSHR              62                N/A     2/210/14
TORREY PINES OTR              62                N/A     2/230/14
POINT LOMA SOUTH              62                N/A     2/270/17

$$





USA.gov is the U.S. government's official web portal to all federal, state and local government web resources and services.